Hourly Data Report for September 11, 2017

All times are specified in Local Standard Time (LST). Add 1 hour to adjust for Daylight Saving Time where and when it is observed.

ST. JOHN'S INTL A
NEWFOUNDLAND

47°37'07.000" N
52°45'09.000" W
140.50 m
8403505
71801
YYT

Download Data

Hourly Data (September 2017)
Hourly Data Report for September 11, 2017
Temp Definition
°C
Dew Point Temp Definition
°C
Rel Hum Definition
%
Wind Dir Definition
10's deg

Wind Spd Definition
km/h
Visibility Definition
km
Stn Press Definition
kPa
Hmdx Definition


Wind Chill Definition


Weather Definition


TIME
00:30 Legend Double Dagger 10.8 10.8 100 5 21 1.2 99.56     Moderate Rain,Fog
01:30 Legend Double Dagger 10.8 10.8 100 4 24 1.2 99.56     Moderate Rain,Fog
02:30 Legend Double Dagger 10.9 10.9 100 4 33 0.6 99.44     Rain,Fog
03:30 Legend Double Dagger 10.9 10.9 100 4 31 0.8 99.37     Drizzle,Fog
04:30 Legend Double Dagger 10.9 10.9 100 4 30 0.4 99.32     Drizzle,Fog
05:30 Legend Double Dagger 11.0 11.0 100 5 28 0.6 99.27     Rain,Fog
06:30 Legend Double Dagger 11.3 11.3 100 6 36 0.8 99.24     Drizzle,Fog
07:30 Legend Double Dagger 11.5 11.5 100 5 38 0.8 99.21     Rain,Fog
08:30 Legend Double Dagger 11.6 11.6 100 5 38 0.6 99.22     Rain,Fog
09:30 Legend Double Dagger 11.5 11.5 100 4 38 0.8 99.20     Rain,Fog
10:30 Legend Double Dagger 11.6 11.6 100 5 38 0.8 99.33     Rain,Fog
11:30 Legend Double Dagger 11.6 11.6 100 4 35 0.6 99.30     Rain,Fog
12:30 Legend Double Dagger 11.6 11.6 100 5 35 0.4 99.22     Rain,Fog
13:30 Legend Double Dagger 11.4 11.4 100 5 40 0.8 99.23     Rain,Fog
14:30 Legend Double Dagger 11.4 11.4 100 5 37 0.6 99.16     Rain,Fog
15:30 Legend Double Dagger 11.3 11.3 100 5 33 1.6 99.18     Moderate Rain,Fog
16:30 Legend Double Dagger 11.3 11.3 100 6 36 1.6 99.13     Moderate Rain,Fog
17:30 Legend Double Dagger 11.5 11.5 100 5 32 0.4 99.10     Drizzle,Fog
18:30 Legend Double Dagger 11.5 11.5 100 5 33 0.6 99.07     Moderate Rain,Fog
19:30 Legend Double Dagger 11.4 11.4 100 4 35 0.2 99.07     Rain,Fog
20:30 Legend Double Dagger 11.3 11.3 100 5 35 0.4 99.04     Moderate Rain,Fog
21:30 Legend Double Dagger 11.2 11.2 100 4 40 0.6 99.02     Rain,Fog
22:30 Legend Double Dagger 11.2 11.2 100 6 37 1.2 99.02     Heavy Rain,Fog
23:30 Legend Double Dagger 11.3 11.3 100 7 29 2.0 99.03     Moderate Rain,Fog

Notes on Data Quality.

Legend

  • E = Estimated
  • M = Missing
  • NA = Not Available
  • ‡ = Partner data that is not subject to review by the National Climate Archives
Date modified: